[[{"header":{"parameterUnit":"m.s-1","parameterCategory":1,"la1":30.2991,"la2":30.254,"lo1":-89.0895,"lo2":-89.0444,"dy":0.0017,"dx":0.0017,"nx":28,"ny":28,"refTime":"2023-10-28T21:00:00:Z","depth":0,"parameterNumber":2,"parameterNumberName":"U-component_of_WINDS"},"data":[0,0,0,0,0,0,0,0,0,0,0,0,0,0,0,0,0,0,0,0,0,0,0,0,0,0,0,0,0,0,0,0,0,0,0,0,0,0,0,0,0,0,0,0,0,0,0,0,0,0,0,0,0,0,0,0,0,0,-2.4034,-2.4034,0,-2.4028,-2.4028,-2.4028,-2.3991,-2.399,-2.3989,-2.3988,-2.3982,-2.3983,-2.3983,0,0,0,0,0,0,0,0,0,0,0,0,0,-2.4013,-2.4014,-2.4034,-2.4034,-2.4034,-2.4028,-2.4028,-2.4028,-2.3991,-2.399,-2.3989,-2.3988,-2.3982,-2.3983,-2.3983,0,0,0,0,0,0,0,0,0,0,0,0,0,-2.4016,-2.4014,-2.4034,-2.4015,-2.4013,-2.4028,-2.4028,-2.4028,-2.3991,-2.399,-2.3988,-2.3987,-2.3981,-2.3982,-2.3983,-2.4017,0,0,-2.3987,-2.3987,0,0,0,0,0,0,0,0,-2.4016,-2.4017,-2.4017,-2.4016,-2.4014,-2.4009,-2.4018,-2.4024,-2.3991,-2.3999,-2.3988,-2.3986,-2.3992,-2.3992,-2.3994,-2.4017,-2.4017,-2.3987,-2.3987,-2.3988,-2.3988,0,0,0,0,0,0,0,-2.4016,-2.4017,-2.4032,-2.4018,-2.4015,-2.4006,-2.4005,-2.4019,-2.4003,-2.3998,-2.3996,-2.3996,-2.3991,-2.3993,-2.3994,-2.4016,-2.3987,-2.3988,-2.3988,-2.3989,-2.4066,-2.4068,0,0,0,0,0,0,-2.4018,-2.4017,-2.4032,-2.4031,-2.4012,-2.4008,-2.4007,-2.4012,-2.4003,-2.4,-2.3997,-2.3994,-2.3992,-2.3992,-2.3993,-2.4031,-2.3988,-2.3989,-2.3989,-2.4065,-2.4067,-2.4068,0,0,0,0,0,0,-2.4018,-2.402,-2.4032,-2.4024,-2.4024,-2.401,-2.4016,-2.4012,-2.4015,-2.4002,-2.3999,-2.4002,-2.3991,-2.3992,-2.4011,-2.403,-2.3989,-2.399,-2.4063,-2.4066,-2.4068,-2.4108,0,0,0,0,0,0,-2.4018,-2.402,-2.4033,-2.4024,-2.4025,-2.405,-2.4017,-2.4013,-2.4016,-2.4013,-2.4006,-2.4003,-2.399,-2.401,-2.4012,-2.4031,-2.3991,-2.4061,-2.4064,-2.4067,-2.4105,-2.4111,-2.4117,0,0,0,0,0,-2.4017,-2.4044,-2.4033,-2.4035,-2.404,-2.4051,-2.4052,-2.4036,-2.4018,-2.403,-2.4022,-2.4004,-2.4029,-2.4012,-2.4015,-2.4034,-2.406,-2.4063,-2.4067,-2.4102,-2.411,-2.4117,0,0,0,0,0,0,-2.4055,-2.4043,-2.403,-2.4056,-2.4055,-2.4045,-2.406,-2.4045,-2.4049,-2.4045,-2.4025,-2.4024,-2.4046,-2.4042,-2.4025,-2.4066,-2.4041,-2.4045,-2.4067,-2.4075,-2.4081,-2.408,-2.3992,0,0,0,0,0,-2.4066,-2.4076,-2.4065,-2.4089,-2.4089,-2.4075,-2.4079,-2.4067,-2.4065,-2.4064,-2.4058,-2.4057,-2.4064,-2.407,-2.4076,-2.4105,-2.4102,-2.4119,-2.4125,-2.413,-2.4133,-2.4148,-2.4155,-2.4079,-2.4079,-2.4079,0,0,-2.4089,-2.4084,-2.4092,-2.4096,-2.4094,-2.4105,-2.4075,-2.4087,-2.4095,-2.4066,-2.4084,-2.408,-2.4077,-2.4102,-2.4112,-2.4099,-2.4154,-2.4135,-2.4139,-2.4139,-2.4152,-2.4159,-2.4166,-2.4081,-2.4081,-2.408,0,0,-2.4137,-2.4135,-2.4153,-2.4152,-2.4149,-2.414,-2.4145,-2.4138,-2.4133,-2.4151,-2.413,-2.4139,-2.4153,-2.4152,-2.4153,-2.4202,-2.4185,-2.4205,-2.4235,-2.425,-2.4256,-2.4261,-2.4277,-2.4283,-2.4208,-2.4209,-2.4209,0,-2.4166,-2.4181,-2.4165,-2.4179,-2.4181,-2.4157,-2.4176,-2.4175,-2.4175,-2.4177,-2.4163,-2.418,-2.4177,-2.42,-2.4212,-2.4215,-2.4219,-2.4204,-2.4256,-2.4261,-2.4266,-2.4281,-2.4287,-2.4211,-2.4211,-2.421,-2.421,0,-2.4217,-2.4228,-2.4243,-2.4244,-2.4248,-2.4265,-2.4251,-2.4258,-2.4246,-2.4238,-2.4257,-2.4252,-2.4257,-2.4262,-2.4251,-2.4284,-2.4276,-2.426,-2.4234,-2.4276,-2.4289,-2.4295,-2.4214,-2.4213,-2.4213,-2.4212,0,0,-2.4285,-2.4278,-2.4283,-2.4283,-2.4279,-2.4288,-2.4304,-2.4308,-2.4314,-2.4316,-2.4328,-2.434,-2.4325,-2.4327,-2.4315,-2.4328,-2.4366,-2.431,-2.431,-2.4319,-2.4402,-2.4413,-2.442,-2.4356,-2.4357,-2.4358,-2.4401,0,-2.433,-2.4356,-2.4342,-2.437,-2.438,-2.4357,-2.4371,-2.437,-2.4364,-2.4372,-2.4365,-2.4374,-2.4353,-2.4354,-2.4366,-2.4359,-2.4382,-2.4356,-2.4366,-2.4366,-2.4365,-2.4427,-2.4439,-2.4481,-2.4407,-2.4408,-2.4409,0,-2.4384,-2.4388,-2.4417,-2.4411,-2.4415,-2.4427,-2.4431,-2.4439,-2.4438,-2.4432,-2.4435,-2.442,-2.4436,-2.4412,-2.4432,-2.4415,-2.4418,-2.4416,-2.4417,-2.4415,-2.4389,-2.4426,-2.4494,-2.4499,-2.4417,-2.4417,-2.4416,0,-2.443,-2.4442,-2.4461,-2.4462,-2.4456,-2.4466,-2.4464,-2.4461,-2.4465,-2.4469,-2.4471,-2.4477,-2.4479,-2.4484,-2.4471,-2.4455,-2.4493,-2.4468,-2.4488,-2.4488,-2.4495,-2.4495,-2.4562,-2.4501,-2.4501,-2.4501,-2.4501,0,-2.448,-2.4498,-2.4481,-2.4493,-2.4512,-2.4497,-2.4517,-2.4513,-2.4511,-2.4521,-2.4503,-2.4513,-2.4497,-2.4505,-2.4496,-2.4514,-2.4516,-2.4511,-2.4508,-2.4512,-2.4512,-2.4512,-2.4508,-2.4502,-2.4502,-2.4502,-2.4501,0,-2.4533,-2.4523,-2.4541,-2.4535,-2.4534,-2.4549,-2.4543,-2.4553,-2.4547,-2.456,-2.4562,-2.4551,-2.456,-2.4549,-2.4557,-2.4551,-2.4574,-2.4568,-2.4574,-2.4572,-2.4592,-2.4589,-2.4661,-2.4669,-2.4604,-2.4604,-2.4605,0,-2.4564,-2.4577,-2.4573,-2.4579,-2.4578,-2.4587,-2.4591,-2.4578,-2.4583,-2.4583,-2.4593,-2.4601,-2.4606,-2.4621,-2.4614,-2.462,-2.4612,-2.4637,-2.4613,-2.4616,-2.4611,-2.461,-2.461,-2.4641,-2.4642,-2.4643,-2.4643,0,-2.462,-2.4615,-2.4622,-2.4627,-2.4633,-2.4636,-2.4638,-2.4644,-2.4629,-2.4636,-2.4645,-2.4649,-2.4658,-2.4665,-2.4669,-2.4668,-2.4653,-2.4651,-2.4656,-2.4659,-2.4661,-2.4659,-2.4586,-2.4649,-2.4649,-2.4648,-2.4648,-2.4648,-2.4662,-2.4673,-2.4672,-2.468,-2.468,-2.4683,-2.4692,-2.4687,-2.4694,-2.47,-2.4692,-2.4703,-2.4702,-2.4707,-2.4707,-2.4715,-2.4704,-2.4711,-2.4713,-2.4714,-2.4717,-2.4662,-2.4716,-2.4716,-2.4716,-2.4716,-2.4715,0,-2.4716,-2.4715,-2.4723,-2.4726,-2.4733,-2.472,-2.4722,-2.4728,-2.4738,-2.4739,-2.4744,-2.4755,-2.4762,-2.4757,-2.4763,-2.4771,-2.4764,-2.4773,-2.4771,-2.4771,-2.4727,-2.4721,-2.4778,-2.4778,-2.4778,-2.4778,-2.4778,-2.4778,-2.4745,-2.4762,-2.4757,-2.4775,-2.4773,-2.4784,-2.4786,-2.4788,-2.4789,-2.4801,-2.4808,-2.4804,-2.4802,-2.4808,-2.4815,-2.4813,-2.4815,-2.4826,-2.4821,-2.478,-2.4774,-2.4768,-2.4763,-2.4827,-2.4827,-2.4864,-2.4865,-2.4865]},{"header":{"parameterUnit":"m.s-1","parameterCategory":1,"la1":30.2991,"la2":30.254,"lo1":-89.0895,"lo2":-89.0444,"dy":0.0017,"dx":0.0017,"nx":28,"ny":28,"refTime":"2023-10-28T21:00:00:Z","depth":0,"parameterNumber":3,"parameterNumberName":"V-component_of_WINDS"},"data":[0,0,0,0,0,0,0,0,0,0,0,0,0,0,0,0,0,0,0,0,0,0,0,0,0,0,0,0,0,0,0,0,0,0,0,0,0,0,0,0,0,0,0,0,0,0,0,0,0,0,0,0,0,0,0,0,0,0,1.0367,1.0368,0,1.0464,1.0465,1.0467,1.0437,1.0435,1.0433,1.0431,1.0531,1.0536,1.054,0,0,0,0,0,0,0,0,0,0,0,0,0,1.0157,1.0161,1.0366,1.0368,1.0369,1.0464,1.0465,1.0467,1.0437,1.0434,1.0432,1.043,1.053,1.0535,1.0541,0,0,0,0,0,0,0,0,0,0,0,0,0,1.0251,1.0162,1.0366,1.0365,1.0366,1.0464,1.0466,1.0467,1.0438,1.0434,1.0431,1.0428,1.0528,1.0535,1.0542,1.0646,0,0,1.0563,1.0566,0,0,0,0,0,0,0,0,1.0245,1.0258,1.0364,1.0366,1.0367,1.0435,1.0428,1.0527,1.0438,1.0411,1.0431,1.0427,1.0502,1.0511,1.0536,1.0651,1.0655,1.0563,1.0567,1.057,1.0572,0,0,0,0,0,0,0,1.0239,1.0254,1.0405,1.0366,1.0368,1.0361,1.0371,1.0447,1.0472,1.0413,1.0411,1.0423,1.0502,1.0529,1.0538,1.0656,1.0563,1.0569,1.0573,1.0576,1.0865,1.0869,0,0,0,0,0,0,1.0231,1.0249,1.0402,1.0408,1.0297,1.0368,1.0379,1.0416,1.0471,1.0477,1.0425,1.0421,1.0519,1.053,1.0541,1.067,1.057,1.0577,1.0581,1.0862,1.0866,1.087,0,0,0,0,0,0,1.0227,1.0245,1.0398,1.0328,1.0347,1.0374,1.0417,1.042,1.0447,1.0481,1.0485,1.0448,1.0517,1.0532,1.0621,1.0673,1.058,1.0586,1.0858,1.0863,1.0868,1.0926,0,0,0,0,0,0,1.0221,1.0244,1.0283,1.0329,1.0351,1.0475,1.042,1.0424,1.0459,1.0454,1.0504,1.0509,1.0516,1.0611,1.0628,1.0681,1.0592,1.0853,1.086,1.0866,1.0919,1.0933,1.0944,0,0,0,0,0,1.0214,1.0295,1.0285,1.0304,1.04,1.0478,1.0491,1.0497,1.0463,1.0504,1.0526,1.0507,1.0664,1.062,1.0639,1.0695,1.085,1.0858,1.0866,1.0914,1.093,1.0943,0,0,0,0,0,0,1.0253,1.0301,1.029,1.0389,1.043,1.0473,1.0524,1.0513,1.0564,1.0558,1.0563,1.0575,1.0667,1.0689,1.064,1.08,1.0752,1.0764,1.0782,1.0798,1.081,1.0803,1.0597,0,0,0,0,0,1.0274,1.0333,1.0371,1.0454,1.0475,1.0496,1.053,1.0532,1.0575,1.0592,1.062,1.0663,1.0722,1.0761,1.0817,1.0922,1.0934,1.097,1.0982,1.0992,1.1003,1.1063,1.1081,1.0896,1.0896,1.0896,0,0,1.0316,1.0349,1.0386,1.0463,1.0495,1.0557,1.0511,1.0578,1.0625,1.0602,1.0689,1.0711,1.0759,1.0858,1.0903,1.088,1.1056,1.1002,1.101,1.1015,1.1073,1.1091,1.1106,1.0902,1.0901,1.09,0,0,1.0426,1.0455,1.053,1.0563,1.0613,1.0626,1.0644,1.069,1.0705,1.0792,1.0777,1.0833,1.0933,1.097,1.1001,1.1127,1.1113,1.1145,1.1209,1.1268,1.1283,1.1295,1.1343,1.136,1.1156,1.1156,1.1156,0,1.0472,1.0565,1.0569,1.0639,1.0674,1.0657,1.0733,1.0765,1.0831,1.0856,1.0829,1.0958,1.0989,1.1097,1.1128,1.1153,1.1176,1.114,1.128,1.1293,1.1305,1.1351,1.1368,1.116,1.1159,1.1159,1.1159,0,1.0621,1.0686,1.074,1.0805,1.0846,1.0918,1.0935,1.0976,1.0975,1.0992,1.1082,1.1119,1.1184,1.1209,1.1207,1.1319,1.1303,1.1278,1.123,1.1327,1.137,1.1387,1.1165,1.1164,1.1163,1.1162,0,0,1.0758,1.0826,1.0846,1.0876,1.093,1.0981,1.1054,1.1117,1.1154,1.12,1.1263,1.135,1.1328,1.1364,1.1366,1.1418,1.1519,1.1387,1.1388,1.1412,1.1647,1.1667,1.1687,1.1509,1.1513,1.1515,1.1643,0,1.0874,1.1002,1.1009,1.1125,1.1187,1.1173,1.1236,1.1277,1.1296,1.1352,1.1372,1.1435,1.14,1.1422,1.1472,1.1496,1.1566,1.1486,1.157,1.1572,1.156,1.1709,1.1729,1.1848,1.166,1.1663,1.1665,0,1.1026,1.1078,1.1201,1.125,1.1276,1.1333,1.1393,1.1446,1.1493,1.1503,1.1545,1.1541,1.1617,1.1566,1.1672,1.1618,1.1652,1.1669,1.1674,1.1683,1.1626,1.1724,1.1886,1.1905,1.1691,1.1689,1.1687,0,1.1117,1.1218,1.1305,1.1331,1.1389,1.143,1.1456,1.15,1.1539,1.1592,1.1618,1.1679,1.1713,1.176,1.1774,1.1734,1.1881,1.183,1.1893,1.1893,1.1926,1.1924,1.2098,1.1945,1.1944,1.1944,1.1943,0,1.1247,1.1323,1.1347,1.1401,1.1487,1.1495,1.158,1.1604,1.1644,1.1703,1.1694,1.175,1.1763,1.1822,1.1832,1.1921,1.1935,1.1947,1.1949,1.1949,1.1948,1.1973,1.1966,1.1949,1.1948,1.1947,1.1946,0,1.1363,1.1382,1.1477,1.1524,1.1538,1.16,1.1641,1.1694,1.1712,1.1788,1.1806,1.1834,1.1904,1.1921,1.2003,1.2011,1.2116,1.2109,1.21,1.21,1.2164,1.2158,1.2361,1.2389,1.2216,1.2217,1.2219,0,1.1446,1.1505,1.1559,1.1599,1.1627,1.169,1.173,1.1741,1.1783,1.1843,1.1889,1.1958,1.2013,1.2125,1.2153,1.2217,1.2213,1.228,1.2223,1.2222,1.2217,1.2214,1.2222,1.2291,1.2293,1.2295,1.2296,0,1.1591,1.1598,1.1656,1.1719,1.1767,1.1817,1.1864,1.1897,1.1915,1.1963,1.2034,1.2077,1.2163,1.2231,1.2296,1.2324,1.2314,1.2314,1.2332,1.2333,1.2327,1.2334,1.2132,1.2309,1.2308,1.2307,1.2306,1.2306,1.1695,1.1748,1.1795,1.1861,1.1898,1.1943,1.1996,1.2022,1.2081,1.2152,1.2155,1.2233,1.2281,1.2367,1.2399,1.2461,1.2441,1.2467,1.2474,1.2481,1.2488,1.2316,1.2472,1.2472,1.2472,1.2471,1.2471,0,1.1842,1.1873,1.1933,1.2001,1.2053,1.2039,1.2091,1.2137,1.2206,1.2251,1.2307,1.239,1.2457,1.2492,1.2559,1.2602,1.26,1.262,1.2618,1.2625,1.25,1.2479,1.2621,1.2621,1.2621,1.2621,1.2621,1.2621,1.1925,1.2015,1.2028,1.2137,1.2166,1.2243,1.2275,1.2317,1.2354,1.2448,1.2504,1.2526,1.2568,1.2639,1.2701,1.2709,1.2736,1.2759,1.2765,1.2648,1.2633,1.2619,1.2599,1.2764,1.2764,1.2885,1.2886,1.2887]}]]